STARLINK-6295, 56554

Orbit data source: Space-Track

STARLINK-6295, 56554 is a payload satellite owned by SpaceX/Seattle (US) in LEO that was launched on Sun, 14 May 2023 UTC via an FALCON 9 launch vehicle from the Air Force Eastern Test Range (AFETR). Payload-class satellites include a variety of spacecraft equipped with specific instruments for various scientific and technological missions. These include communications satellites like Starlink; space stations such as the ISS; scientific satellites like the Hubble; Earth observation satellites from companies like Planet Labs, Umbra, and HawkEye 360; GPS; miniature CubeSats for education and research; and military/defense satellites.

Loading next visibility...
Identifier
56554, 2023-065BD
Orbit
LEO
Country
Flag of USUS
Related business
Manufacturer
SpaceX/Seattle
Mission
Operational Commercial Communications
Bus & Motor
STARLINK, Unknown motor
Mass
305 kg wet, ~290 kg dry
Launch date (UTC)
2023-05-14 (3 years ago)
Launch vehicle
FALCON 9
Launch site
Air Force Eastern Test Range (AFETR)
Object type
Payload
Rocket body
Debris
Shape & HBR
Box + 1 Pan, 10.1 m
Radar Cross Section
11.087 m², Large (>1 m²)

Expand to show TLE details & history
Last TLE update: 3 days ago

TLE from 3 days ago
0 STARLINK-6295
1 56554U 23065BD  26170.58846633  .00008637  00000-0  32329-3 0  9996
2 56554  43.0037   8.3304 0001190 226.3476 133.7277 15.27552040172059
Epoch: 2026-06-19T14:07Z
TLE epoch observation values (Epoch: 2026-06-19T14:07:23.490Z)
Latitude
-0.00005°
Longitude
-111.33281°
Altitude
483.473 km
Speed
7.625 km/s
True Right ascension
00h 33m 19s
True Declination
0° 00' 00"
Sunlit
Object was in daylight at epoch
Visualization orbit readout
Latitude
Unknown
Longitude
Unknown
Altitude
Unknown
Speed
Unknown
Apparent Right ascension
Unknown
Apparent Declination
Unknown
Sunlit
N/A
Visualization observer readout
Local Sidereal Time
21:23:41
Azimuth
Unknown
Elevation
Unknown
Doppler factor
Unknown
Orbital elements
Apogee altitude
485.894 km
Perigee altitude
484.261 km
Semi-major axis
6,863.214 km
Eccentricity
0.00012
Inclination
43.0037°
RAAN
8.3304°
Arg. of periapsis
226.3476°
True anomaly
133.73755°
Mean anomaly
133.7277°
Eccentric anomaly
133.73263°
Mean motion
3.81726 °/min
Orbital period
94.31 mins
BSTAR
0.00032329
Loading maneuver chart data...
Computing Atmospheric mass density...
Loading historical data...
Loading historical data...
Loading historical data...
Loading historical data...
Loading historical data...
Loading historical data...
Loading historical data...

Documentation

Showing up to 5 results
|